Regional Weather Roundup
Issued by NWS Jackson, KY

Home | Current Version | Previous Version | Graphics & Text | Print | Product List | Glossary On
Versions: 1 2 3 4 5 6 7 8 9 10 11 12 13 14 15 16 17 18 19 20 21 22 23 24 25 26 27 28 29 30 31 32 33 34 35 36 37 38 39 40 41 42 43 44 45 46 47 48 49 50
000
ASUS43 KJKL 242211
RWRJKL

EAST KENTUCKY HOURLY WEATHER ROUNDUP
NATIONAL WEATHER SERVICE JACKSON KY
600 PM EDT FRI OCT 24 2014

NOTE: "FAIR" INDICATES FEW OR NO CLOUDS BELOW 12,000 FEET WITH
NO SIGNIFICANT WEATHER AND/OR OBSTRUCTIONS TO VISIBILITY.

* THESE REPORTS ARE NOT UNDER NWS QUALITY CONTROL AND MAY NOT
  REPORT WEATHER SUCH AS PRECIPITATION AND FOG.

KYZ079-080-083-085-087-088-110-112-115-119-120-242300
...EASTERN KENTUCKY...

CITY           SKY/WX    TMP DP  RH WIND       PRES   REMARKS
JACKSON        CLEAR     62  39  42 CALM      30.06S
LONDON         CLEAR     65  41  41 W3        30.06R
SOMERSET*      CLEAR     63  43  48 CALM      30.08R
MONTICELLO*    CLEAR     67  41  38 NW5       30.08R HAZE
WILLIAMSBURG*  CLEAR     64  41  42 CALM      30.07R
MIDDLESBORO*   CLEAR     64  41  43 NW5       30.05R
HARLAN APT*    CLEAR     63  36  36 NW5       30.04S
HAZARD APT*    CLEAR     63  39  42 CALM      30.06
BLACK MTN*       N/A     48  39  71 VRB1        N/A
PIKEVILLE APT* CLEAR     57  41  54 CALM      30.06S
BIG SANDY*     CLEAR     59  44  57 SW3       30.06S
MOREHEAD APT*  CLEAR     63  41  45 SW7       30.08R
$$

KYZ035-036-041-042-044-050-067-078-099-242300
...CENTRAL KENTUCKY...

CITY           SKY/WX    TMP DP  RH WIND       PRES   REMARKS
MT STERLING*   CLEAR     63  43  48 CALM      30.07S
FLEMING/MASON* CLEAR     62  44  51 SW5       30.06R
DANVILLE*      CLEAR     63  39  42 CALM      30.07S
RICHMOND*      CLEAR     63  41  45 CALM      30.06S
LEXINGTON      CLEAR     65  40  39 CALM      30.06R
FRANKFORT      CLEAR     62  40  44 SW6       30.04F
$$

KYZ091>093-OHZ055-061-077-WVZ005-015-034-035-042-242300
...SOUTHERN OHIO/WEST VIRGINIA...

CITY           SKY/WX    TMP DP  RH WIND       PRES   REMARKS
COVINGTON      PTCLDY    64  38  38 SW5       30.04S
COLUMBUS       CLEAR     63  37  38 W6        30.02R
DAYTON         PTCLDY    63  40  42 SW8       30.03S
WILMINGTON     CLEAR     62  36  37 W8        30.03S
HUNTINGTON     CLEAR     63  42  46 CALM      30.04R
CHARLESTON     PTCLDY    61  40  45 W3        30.03F
PINEVILLE*     CLEAR     53  48  85 MISG      30.10S
BECKLEY        CLEAR     56  35  45 NW7       30.05S
BLUEFIELD      CLEAR     57  36  45 W7        30.05S
$$

VAZ002-007-008-TNZ017-027-036-066-071-242300
...SOUTHWEST VIRGINIA/EAST TENNESSEE...

CITY           SKY/WX    TMP DP  RH WIND       PRES   REMARKS
WISE*          CLEAR     57  37  47 N6        30.08R
JONESVILLE*    CLEAR     66  41  39 CALM      30.05F
ABINGDON*      CLEAR     63  36  36 CALM      30.04S
BRISTOL        PTCLDY    63  40  42 W6        30.04S
KNOXVILLE      PTCLDY    66  38  35 N3        30.02F
OAK RIDGE      CLEAR     67  45  45 SE3       30.04F
CROSSVILLE     CLEAR     65  31  28 N7        30.07R
NASHVILLE      MOSUNNY   68  45  43 NW6       30.06S
$$

...KEY TO REMARKS...
VSB - VISIBILITY IN MILES
WCI - WIND CHILL INDEX
HX  - HEAT INDEX

$$



USA.gov is the U.S. government's official web portal to all federal, state and local government web resources and services.